Location: Newark
(49.2191°N, 12.6671°E)
Time: 04:44:16
(UTC+00:00)

Transit 4A - Pass Details

Date: 25 January 2020
Orbit: 872 x 973 km, 66.8° (Epoch: 16 February)

Event Time Altitude Azimuth Distance (km) Brightness Sun altitude
Rises 07:51:58 0° 257° (WSW) 3,526 10.6 7.4°
Reaches altitude 10° 07:54:54 10° 270° (W) 2,572 9.8 7.8°
Maximum altitude 07:59:52 27° 327° (NNW) 1,652 8.8 8.4°
Drops below altitude 10° 08:04:47 10° 24° (NNE) 2,541 10.0 9.0°
Sets 08:07:40 0° 37° (NE) 3,475 10.8 9.3°
